Weather History for Lima, OH

Change the Weather History Date:

Saturday, January 4, 2014

  Actual Average (KFDY) Record (KFDY)
Temperature  
Mean Temperature 24 °F -  
Max Temperature 36 °F 33 °F 62 °F (1997)
Min Temperature 12 °F 18 °F -11 °F (1981)
Degree Days  
Heating Degree Days 41    
Moisture  
Dew Point 12 °F    
Average Humidity 55    
Maximum Humidity 64    
Minimum Humidity 50    
Precipitation  
Precipitation 0.00 in - - ()
Sea Level Pressure  
Sea Level Pressure 30.08 in    
Wind  
Wind Speed 16 mph (SSW)    
Max Wind Speed 22 mph    
Max Gust Speed 31 mph    
Visibility 10 miles    
Events      
Averages and records for this station are not official NWS values.
T = Trace of Precipitation, MM = Missing Value Source: NWS Daily Summary

Daily Weather History Graph

Daily Weather History Graph

Search for Another Location

Airport:

Trip Planner

Search our weather history database for the weather conditions in past years. The results will help you decide how hot, cold, wet, or windy it might be!

Date:

Astronomy

Jan. 04, 2014 Rise Set
Actual Time 8:00 AM EST 5:22 PM EST
Civil Twilight 7:29 AM EST 5:52 PM EST
Nautical Twilight 6:55 AM EST 6:27 PM EST
Astronomical Twilight 6:22 AM EST 7:00 PM EST
Moon 10:03 AM EST (1/4) 9:42 PM EST (1/4)
Length of Visible Light 10h 23m
Length of Day
9h 21m
Waxing Crescent, 15% of the Moon is Illuminated
Jan 4
Waxing Crescent
Jan 7
First Quarter
Jan 15
Full
Jan 24
Last Quarter
Jan 30
New

Hourly Weather History & Observations

Time (EST) Temp. Windchill Dew Point Humidity Pressure Visibility Wind Dir Wind Speed Gust Speed Precip Events Conditions
12:53 AM 12.0 °F -4.0 °F 1.9 °F 64% 30.21 in 10.0 mi South 15.0 mph - N/A   Clear
1:53 AM 14.0 °F -2.5 °F 3.0 °F 62% 30.20 in 10.0 mi South 17.3 mph - N/A   Clear
2:53 AM 16.0 °F 1.1 °F 3.9 °F 59% 30.19 in 10.0 mi South 15.0 mph - N/A   Clear
3:53 AM 16.0 °F -0.9 °F 3.9 °F 59% 30.15 in 10.0 mi South 19.6 mph 27.6 mph N/A   Clear
4:53 AM 16.0 °F 0.6 °F 5.0 °F 62% 30.13 in 10.0 mi South 16.1 mph 26.5 mph N/A   Clear
5:53 AM 17.1 °F 2.0 °F 5.0 °F 59% 30.11 in 10.0 mi South 16.1 mph - N/A   Clear
6:53 AM 21.9 °F 6.5 °F 6.1 °F 51% 30.09 in 10.0 mi South 20.7 mph 29.9 mph N/A   Clear
7:53 AM 21.0 °F 5.7 °F 7.0 °F 55% 30.07 in 10.0 mi South 19.6 mph 26.5 mph N/A   Clear
8:53 AM 21.9 °F 6.2 °F 8.1 °F 55% 30.07 in 10.0 mi South 21.9 mph 27.6 mph N/A   Clear
9:53 AM 25.0 °F 11.7 °F 10.0 °F 53% 30.06 in 10.0 mi SSW 17.3 mph 31.1 mph N/A   Clear
10:53 AM 26.1 °F 12.7 °F 10.9 °F 53% 30.08 in 10.0 mi SSW 18.4 mph 26.5 mph N/A   Clear
11:53 AM 27.0 °F 13.5 °F 12.9 °F 56% 30.06 in 10.0 mi SSW 19.6 mph 26.5 mph N/A   Clear
12:53 PM 28.9 °F 16.9 °F 14.0 °F 54% 30.04 in 10.0 mi SSW 17.3 mph 26.5 mph N/A   Clear
1:53 PM 30.9 °F 20.7 °F 15.1 °F 52% 30.01 in 10.0 mi SSW 13.8 mph 23.0 mph N/A   Clear
2:53 PM 30.9 °F 21.2 °F 16.0 °F 54% 30.01 in 10.0 mi South 12.7 mph - N/A   Clear
3:53 PM 32.0 °F 22.1 °F 17.1 °F 54% 30.03 in 10.0 mi SSW 13.8 mph - N/A   Clear
4:53 PM 32.0 °F 23.0 °F 17.1 °F 54% 30.04 in 10.0 mi South 11.5 mph - N/A   Scattered Clouds
5:53 PM 33.1 °F 24.9 °F 18.0 °F 54% 30.03 in 10.0 mi SSW 10.4 mph - N/A   Overcast
6:53 PM 34.0 °F 27.2 °F 19.0 °F 54% 30.04 in 10.0 mi South 8.1 mph - N/A   Overcast
7:53 PM 35.1 °F 27.9 °F 18.0 °F 50% 30.05 in 10.0 mi SSW 9.2 mph - N/A   Overcast
8:53 PM 36.0 °F 27.5 °F 19.0 °F 50% 30.06 in 10.0 mi SSW 12.7 mph - N/A   Overcast
9:53 PM 35.1 °F 27.4 °F 19.0 °F 52% 30.06 in 10.0 mi SSW 10.4 mph - N/A   Overcast
10:53 PM 36.0 °F 29.0 °F 19.9 °F 52% 30.06 in 10.0 mi SW 9.2 mph - N/A   Overcast
11:53 PM 35.1 °F 29.3 °F 19.9 °F 54% 30.06 in 10.0 mi SW 6.9 mph - N/A   Overcast